Starlink 3296

operational
NORAD ID: 50168 Int'l Des: 2021-125 Owner: SPXS Country: US Constellation: starlink
LEOCIRCULAR

Starlink 3296について

説明を読み込み中...

リアルタイム位置

3D地球を読み込み中...

次回通過

高度履歴

Altitude vs Time

uPlot chart will show altitude changes over time

軌道要素

1 50168U 21125N 25353.00002315 .01288744 00000-0 68296-2 0 9997
2 50168 53.2160 242.7311 0001099 78.4378 190.4183 15.77455871 5792
Epoch: Dec 19, 2025 • Age: 4 hours

現在のステータス

高度 341.5 km
速度 7.71 km/s
衛星直下点 48.98°N, 156.84°E
打ち上げ日 Dec 18, 2021
運用期間 4 years
タイプ internet

技術仕様

分類 Payload
質量 290.00 kg
乾燥質量 270.00 kg
総質量 290.00 kg
長さ 0.20 m
直径 2.80 m
スパン 9.00 m
形状 Box + pan
製造者 SPXS
バスタイプ Starlink
フェーズステータス In Orbit
所有者/国 SPXS/US

大規模コンステレーション

Loading constellations...